Zurück zum Katalog

SCOUT G-1 DEB

AktivPO
NORAD 14223·DEBRIS·🇺🇸 United States

Gestartet Jun 27, 1983 von Vandenberg Space Force Base

Loading…

Nächste Überflüge (nächste 24 Stunden)

TLE

AktuellSource: Space-Track

Epoche: Sep 14, 2026, 11:26 UTC

1 14223U 83063D   26257.47704083  .00000494  00000-0  14438-3 0  9997
2 14223  81.6550 164.1802 0050753 210.5010 274.1799 14.41825987258283

Verfolge SCOUT G-1 DEB in Echtzeit mit AllMySat

Download on the App Store